• In Netherlands
  • List of Countries
  • For 7 days
  • Water Temperature
  • Satellite Maps
  • Weather Map
  • Weather Widgets
  • user-avatar
    Login

    Hourly Weather Hrazdan

    Today, 23 September, Saturday

    Time Temperature Precipitation Wind Pressure Humidity
    00:00 +14°C° 0 mm 2 mps 614 mmHg 77%
    01:00 +13°C° 0 mm 2 mps 614 mmHg 77%
    02:00 +13°C° 0 mm 2 mps 614 mmHg 77%
    03:00 +13°C° 0 mm 2 mps 614 mmHg 77%
    04:00 +13°C° 0 mm 1 mps 614 mmHg 77%
    05:00 +12°C° 0 mm 1 mps 614 mmHg 77%
    06:00 +12°C° 0 mm 1 mps 614 mmHg 77%
    07:00 +15°C° 0 mm 1 mps 615 mmHg 66%
    08:00 +18°C° 0 mm 1 mps 616 mmHg 56%
    09:00 +20°C° 0 mm 1 mps 617 mmHg 46%
    10:00 +21°C° 0 mm 2 mps 617 mmHg 41%
    11:00 +23°C° 0 mm 2 mps 617 mmHg 37%
    12:00 +24°C° 0 mm 2 mps 618 mmHg 32%
    13:00 +24°C° 0.1 mm 2 mps 617 mmHg 32%
    14:00 +24°C° 0.1 mm 3 mps 617 mmHg 32%
    15:00 +24°C° 0.1 mm 3 mps 617 mmHg 33%
    16:00 +21°C° 0.5 mm 2 mps 616 mmHg 41%
    17:00 +19°C° 0.5 mm 2 mps 616 mmHg 50%
    18:00 +18°C° 0.5 mm 1 mps 615 mmHg 59%
    19:00 +16°C° 0.5 mm 2 mps 615 mmHg 65%
    20:00 +15°C° 0.5 mm 2 mps 615 mmHg 72%
    21:00 +14°C° 0.5 mm 2 mps 615 mmHg 78%
    22:00 +14°C° 0 mm 2 mps 615 mmHg 80%
    23:00 +13°C° 0 mm 2 mps 615 mmHg 82%

    Tomorrow, 24 September, Sunday

    Time Temperature Precipitation Wind Pressure Humidity
    00:00 +13°C° 0 mm 2 mps 615 mmHg 84%
    01:00 +12°C° 0 mm 2 mps 615 mmHg 84%
    02:00 +12°C° 0 mm 2 mps 615 mmHg 84%
    03:00 +10°C° 0 mm 2 mps 615 mmHg 85%
    04:00 +10°C° 0 mm 2 mps 615 mmHg 84%
    05:00 +10°C° 0 mm 2 mps 615 mmHg 83%
    06:00 +9°C° 0 mm 2 mps 615 mmHg 82%
    07:00 +13°C° 0 mm 2 mps 616 mmHg 72%
    08:00 +15°C° 0 mm 1 mps 617 mmHg 62%
    09:00 +18°C° 0 mm 1 mps 618 mmHg 52%
    10:00 +19°C° 0 mm 2 mps 618 mmHg 47%
    11:00 +20°C° 0 mm 2 mps 618 mmHg 43%
    12:00 +21°C° 0 mm 2 mps 619 mmHg 38%
    13:00 +21°C° 0.1 mm 2 mps 618 mmHg 38%
    14:00 +21°C° 0.1 mm 2 mps 618 mmHg 37%
    15:00 +23°C° 0.1 mm 2 mps 618 mmHg 37%
    16:00 +19°C° 0.2 mm 2 mps 617 mmHg 45%
    17:00 +17°C° 0.2 mm 2 mps 617 mmHg 52%
    18:00 +15°C° 0.2 mm 2 mps 616 mmHg 60%
    19:00 +15°C° 0.1 mm 2 mps 616 mmHg 64%
    20:00 +14°C° 0.1 mm 2 mps 616 mmHg 67%
    21:00 +13°C° 0.1 mm 2 mps 616 mmHg 71%
    22:00 +12°C° 0 mm 2 mps 616 mmHg 72%
    23:00 +12°C° 0 mm 2 mps 616 mmHg 73%

    Day after tomorrow, 25 September, Monday

    Time Temperature Precipitation Wind Pressure Humidity
    00:00 +10°C° 0 mm 2 mps 616 mmHg 74%
    01:00 +10°C° 0 mm 2 mps 616 mmHg 76%
    02:00 +10°C° 0 mm 2 mps 616 mmHg 78%
    03:00 +9°C° 0 mm 2 mps 616 mmHg 80%
    04:00 +9°C° 0 mm 2 mps 616 mmHg 82%
    05:00 +9°C° 0 mm 2 mps 615 mmHg 84%
    06:00 +9°C° 0 mm 1 mps 615 mmHg 85%
    07:00 +12°C° 0 mm 1 mps 616 mmHg 75%
    08:00 +14°C° 0 mm 1 mps 617 mmHg 65%
    09:00 +16°C° 0 mm 1 mps 618 mmHg 55%
    10:00 +19°C° 0.1 mm 1 mps 618 mmHg 50%
    11:00 +19°C° 0.1 mm 2 mps 618 mmHg 45%
    12:00 +20°C° 0.1 mm 2 mps 619 mmHg 40%
    13:00 +20°C° 0.1 mm 2 mps 618 mmHg 39%
    14:00 +21°C° 0.1 mm 2 mps 618 mmHg 38%
    15:00 +21°C° 0.1 mm 2 mps 618 mmHg 37%
    16:00 +19°C° 0.1 mm 2 mps 617 mmHg 45%
    17:00 +17°C° 0.1 mm 2 mps 616 mmHg 52%
    18:00 +15°C° 0.1 mm 1 mps 616 mmHg 59%
    19:00 +14°C° 0.1 mm 2 mps 616 mmHg 65%
    20:00 +13°C° 0.1 mm 2 mps 616 mmHg 70%
    21:00 +12°C° 0.1 mm 2 mps 616 mmHg 75%
    22:00 +12°C° 0 mm 2 mps 616 mmHg 76%
    23:00 +10°C° 0 mm 2 mps 616 mmHg 77%

    26 September, Tuesday

    Time Temperature Precipitation Wind Pressure Humidity
    00:00 +10°C° 0 mm 2 mps 616 mmHg 78%
    01:00 +11°C° 0 mm 1 mps 615 mmHg 79%
    02:00 +10°C° 0 mm 1 mps 615 mmHg 80%
    03:00 +10°C° 0 mm 1 mps 615 mmHg 80%
    04:00 +10°C° 0 mm 1 mps 615 mmHg 81%
    05:00 +9°C° 0 mm 1 mps 615 mmHg 81%
    06:00 +9°C° 0 mm 1 mps 615 mmHg 82%
    07:00 +11°C° 0 mm 1 mps 616 mmHg 72%
    08:00 +14°C° 0 mm 1 mps 617 mmHg 62%
    09:00 +16°C° 0 mm 1 mps 617 mmHg 51%
    10:00 +17°C° 0 mm 2 mps 618 mmHg 47%
    11:00 +19°C° 0 mm 2 mps 618 mmHg 42%
    12:00 +20°C° 0 mm 2 mps 618 mmHg 37%
    13:00 +20°C° 0 mm 2 mps 618 mmHg 37%
    14:00 +20°C° 0 mm 2 mps 618 mmHg 36%
    15:00 +20°C° 0 mm 2 mps 617 mmHg 36%
    16:00 +18°C° 0 mm 2 mps 617 mmHg 44%
    17:00 +16°C° 0 mm 2 mps 616 mmHg 53%
    18:00 +15°C° 0 mm 1 mps 616 mmHg 61%
    19:00 +14°C° 0.2 mm 2 mps 616 mmHg 67%
    20:00 +14°C° 0.2 mm 2 mps 616 mmHg 73%
    21:00 +13°C° 0.2 mm 2 mps 616 mmHg 79%
    22:00 +13°C° 0 mm 2 mps 616 mmHg 80%
    23:00 +12°C° 0 mm 2 mps 616 mmHg 82%

    27 September, Wednesday

    Time Temperature Precipitation Wind Pressure Humidity
    00:00 +12°C° 0 mm 2 mps 616 mmHg 84%
    01:00 +12°C° 0 mm 2 mps 616 mmHg 85%
    02:00 +10°C° 0 mm 2 mps 616 mmHg 86%
    03:00 +10°C° 0 mm 2 mps 615 mmHg 87%
    04:00 +10°C° 0 mm 2 mps 615 mmHg 87%
    05:00 +10°C° 0 mm 1 mps 615 mmHg 87%
    06:00 +10°C° 0 mm 1 mps 615 mmHg 87%
    07:00 +12°C° 0 mm 1 mps 616 mmHg 76%
    08:00 +14°C° 0 mm 1 mps 617 mmHg 66%
    09:00 +15°C° 0 mm 1 mps 617 mmHg 55%
    10:00 +17°C° 0.1 mm 2 mps 617 mmHg 51%
    11:00 +18°C° 0.1 mm 2 mps 618 mmHg 47%
    12:00 +19°C° 0.1 mm 2 mps 618 mmHg 43%
    13:00 +19°C° 0.2 mm 2 mps 617 mmHg 43%
    14:00 +19°C° 0.2 mm 2 mps 617 mmHg 44%
    15:00 +19°C° 0.2 mm 2 mps 617 mmHg 45%
    16:00 +18°C° 0.5 mm 2 mps 616 mmHg 53%
    17:00 +16°C° 0.5 mm 2 mps 616 mmHg 62%
    18:00 +14°C° 0.5 mm 2 mps 615 mmHg 70%
    19:00 +13°C° 0.5 mm 2 mps 615 mmHg 74%
    20:00 +13°C° 0.5 mm 2 mps 615 mmHg 78%
    21:00 +12°C° 0.5 mm 2 mps 615 mmHg 83%
    22:00 +12°C° 0.2 mm 2 mps 615 mmHg 83%
    23:00 +12°C° 0.2 mm 2 mps 615 mmHg 84%

    28 September, Thursday

    Time Temperature Precipitation Wind Pressure Humidity
    00:00 +12°C° 0.2 mm 2 mps 615 mmHg 85%
    01:00 +10°C° 0.1 mm 2 mps 615 mmHg 86%
    02:00 +10°C° 0.1 mm 2 mps 615 mmHg 88%
    03:00 +9°C° 0.1 mm 2 mps 614 mmHg 89%
    04:00 +9°C° 0 mm 2 mps 614 mmHg 89%
    05:00 +9°C° 0 mm 2 mps 614 mmHg 89%
    06:00 +10°C° 0 mm 1 mps 614 mmHg 89%
    07:00 +11°C° 0 mm 1 mps 615 mmHg 80%
    08:00 +13°C° 0 mm 1 mps 616 mmHg 72%
    09:00 +14°C° 0 mm 1 mps 616 mmHg 63%
    10:00 +15°C° 0 mm 2 mps 617 mmHg 59%
    11:00 +16°C° 0 mm 2 mps 617 mmHg 56%
    12:00 +17°C° 0 mm 2 mps 617 mmHg 52%
    13:00 +17°C° 0.1 mm 2 mps 617 mmHg 53%
    14:00 +17°C° 0.1 mm 2 mps 616 mmHg 54%
    15:00 +17°C° 0.1 mm 2 mps 616 mmHg 56%
    16:00 +15°C° 0.1 mm 2 mps 616 mmHg 63%
    17:00 +13°C° 0.1 mm 3 mps 616 mmHg 70%
    18:00 +12°C° 0.1 mm 3 mps 616 mmHg 78%
    19:00 +11°C° 0.1 mm 3 mps 616 mmHg 80%
    20:00 +11°C° 0.1 mm 3 mps 616 mmHg 82%
    21:00 +10°C° 0.1 mm 3 mps 616 mmHg 85%
    22:00 +10°C° 0.1 mm 3 mps 616 mmHg 85%
    23:00 +10°C° 0.1 mm 3 mps 616 mmHg 85%
    Show more